EW5168 Weather Reports


Display with metric or nautical units.
time (UTC)temp
F
wind
direction
speed
MPH
gust
MPH
rain 1hr
in
rain 24hr
in
rain mn
in
humidity
%
barometer
mb
20260831095400 78 167 3.0 7.0 0.00 0.00 0.00 1 1015.2
20260831094901 78 209 3.0 9.0 0.00 0.00 0.00 1 1015.1
20260831094401 78 144 3.0 9.0 0.00 0.00 0.00 1 1015.1
20260831093906 78 213 3.0 9.0 0.00 0.00 0.00 1 1015.1
20260831093902 78 169 3.0 9.0 0.00 0.00 0.00 1 1015.1
20260831092858 79 161 3.0 9.0 0.00 0.00 0.00 1 1015.1
20260831092359 79 184 3.0 7.0 0.00 0.00 0.00 1 1015.1
20260831091857 79 168 3.0 8.0 0.00 0.00 0.00 1 1015.1
20260831091401 79 188 3.0 8.0 0.00 0.00 0.00 1 1015.1
20260831091355 79 163 3.0 7.0 0.00 0.00 0.00 1 1015.1
20260831090354 79 191 3.0 7.0 0.00 0.00 0.00 1 1015.1
20260831085855 79 206 3.0 7.0 0.00 0.00 0.00 1 1015.1
20260831085354 80 196 3.0 8.0 0.00 0.00 0.00 1 1015.0
20260831084853 80 196 2.0 8.0 0.00 0.00 0.00 1 1015.0
20260831084353 80 188 2.0 8.0 0.00 0.00 0.00 1 1015.0
20260831083852 80 202 3.0 6.0 0.00 0.00 0.00 1 1015.0
20260831083357 80 186 3.0 7.0 0.00 0.00 0.00 1 1015.0
20260831083353 80 180 3.0 7.0 0.00 0.00 0.00 1 1014.9
20260831082958 80 199 2.0 7.0 0.00 0.00 0.00 1 1014.9
20260831081857 81 191 2.0 8.0 0.00 0.00 0.00 1 1014.9
20260831081853 80 175 2.0 7.0 0.00 0.00 0.00 1 1014.9
20260831080852 81 183 3.0 8.0 0.00 0.00 0.00 1 1015.0
20260831080353 81 149 3.0 8.0 0.00 0.00 0.00 1 1015.0
20260831075853 81 190 3.0 8.0 0.00 0.00 0.00 1 1014.9
20260831075352 81 217 2.0 8.0 0.00 0.00 0.00 1 1015.0
20260831074852 82 198 2.0 6.0 0.00 0.00 0.00 1 1015.0
20260831074352 82 159 2.0 7.0 0.00 0.00 0.00 1 1015.0
20260831073853 82 157 3.0 7.0 0.00 0.00 0.00 1 1015.1
20260831073352 82 132 3.0 9.0 0.00 0.00 0.00 1 1015.1
20260831072853 82 202 3.0 9.0 0.00 0.00 0.00 1 1015.1
20260831072353 82 186 3.0 7.0 0.00 0.00 0.00 1 1015.1
20260831071853 82 171 2.0 6.0 0.00 0.00 0.00 1 1015.2
20260831071352 83 211 3.0 8.0 0.00 0.00 0.00 1 1015.2
20260831070851 83 211 3.0 8.0 0.00 0.00 0.00 2 1015.2
20260831070347 83 202 3.0 11.0 0.00 0.00 0.00 4 1015.2
20260831065846 83 171 4.0 11.0 0.00 0.00 0.00 5 1015.2
20260831065343 83 218 4.0 10.0 0.00 0.00 0.00 6 1015.2
20260831064842 83 184 3.0 7.0 0.00 0.00 0.00 8 1015.1
20260831064343 83 165 3.0 10.0 0.00 0.00 0.00 9 1015.2
20260831063842 83 195 4.0 10.0 0.00 0.00 0.00 11 1015.1
20260831063342 83 215 4.0 9.0 0.00 0.00 0.00 12 1015.1
20260831062842 84 154 3.0 9.0 0.00 0.00 0.00 14 1015.1
20260831062340 84 217 3.0 8.0 0.00 0.00 0.00 15 1015.0
20260831061841 84 210 3.0 7.0 0.00 0.00 0.00 17 1015.1
20260831061341 84 168 3.0 9.0 0.00 0.00 0.00 19 1015.0
20260831060842 84 193 3.0 8.0 0.00 0.00 0.00 23 1015.0
20260831060838 84 212 3.0 9.0 0.00 0.00 0.00 21 1015.0
20260831055838 84 153 3.0 6.0 0.00 0.00 0.00 26 1015.1
20260831055343 84 166 3.0 7.0 0.00 0.00 0.00 29 1015.1
20260831055339 84 196 2.0 7.0 0.00 0.00 0.00 27 1015.1
20260831054337 84 172 2.0 7.0 0.00 0.00 0.00 31 1015.1
20260831053836 84 208 2.0 6.0 0.00 0.00 0.00 33 1015.1
20260831053336 84 200 2.0 8.0 0.00 0.00 0.00 34 1015.1
20260831052836 84 186 2.0 8.0 0.00 0.00 0.00 35 1015.1
20260831052336 84 182 2.0 6.0 0.00 0.00 0.00 36 1015.0
20260831051836 84 145 2.0 6.0 0.00 0.00 0.00 37 1015.0
20260831051336 85 161 2.0 6.0 0.00 0.00 0.00 37 1014.9
20260831050836 85 191 2.0 6.0 0.00 0.00 0.00 38 1015.0
20260831050334 85 163 2.0 6.0 0.00 0.00 0.00 39 1015.0
20260831045834 85 160 2.0 6.0 0.00 0.00 0.00 39 1015.0
20260831045333 85 178 2.0 5.0 0.00 0.00 0.00 40 1015.0
20260831044831 85 187 3.0 7.0 0.00 0.00 0.00 40 1015.0
20260831044332 85 184 3.0 9.0 0.00 0.00 0.00 41 1014.9
20260831043832 86 211 2.0 9.0 0.00 0.00 0.00 41 1014.9
20260831043332 86 186 2.0 7.0 0.00 0.00 0.00 42 1014.8
20260831042832 86 166 2.0 7.0 0.00 0.00 0.00 42 1014.8
20260831042329 86 170 2.0 7.0 0.00 0.00 0.00 42 1014.7
20260831041830 86 169 2.0 7.0 0.00 0.00 0.00 42 1014.7
20260831041826 86 74 2.0 7.0 0.00 0.00 0.00 42 1014.6
20260831040826 86 167 2.0 7.0 0.00 0.00 0.00 43 1014.6
20260831040323 86 150 2.0 7.0 0.00 0.00 0.00 43 1014.6
20260831035825 86 188 2.0 7.0 0.00 0.00 0.00 43 1014.5
20260831035326 86 183 1.0 5.0 0.00 0.00 0.00 43 1014.5
20260831035322 86 188 1.0 4.0 0.00 0.00 0.00 43 1014.4
20260831034326 87 159 1.0 5.0 0.00 0.00 0.00 43 1014.2
20260831034321 86 161 1.0 4.0 0.00 0.00 0.00 43 1014.2
20260831033320 87 188 1.0 5.0 0.00 0.00 0.00 43 1014.2
20260831032820 87 202 1.0 5.0 0.00 0.00 0.00 43 1014.1
20260831032318 87 172 1.0 5.0 0.00 0.00 0.00 43 1014.1
20260831031817 87 187 1.0 5.0 0.00 0.00 0.00 43 1014.1
20260831031321 87 158 1.0 6.0 0.00 0.00 0.00 43 1014.0
20260831031317 87 200 1.0 6.0 0.00 0.00 0.00 43 1014.1
20260831030316 87 142 1.0 5.0 0.00 0.00 0.00 43 1014.0
20260831025816 87 200 1.0 5.0 0.00 0.00 0.00 43 1013.9
20260831025320 87 189 1.0 4.0 0.00 0.00 0.00 42 1013.7
20260831025315 87 148 1.0 5.0 0.00 0.00 0.00 43 1013.9
20260831024921 88 185 0.0 2.0 0.00 0.00 0.00 42 1013.6
20260831024421 88 175 0.0 1.0 0.00 0.00 0.00 42 1013.5
20260831023313 88 175 0.0 1.0 0.00 0.00 0.00 42 1013.5
20260831022813 88 175 0.0 3.0 0.00 0.00 0.00 42 1013.4
20260831022809 88 175 0.0 3.0 0.00 0.00 0.00 42 1013.3
20260831022414 89 173 0.0 2.0 0.00 0.00 0.00 42 1013.3
20260831021307 89 160 0.0 1.0 0.00 0.00 0.00 42 1013.3
20260831020807 89 160 0.0 1.0 0.00 0.00 0.00 42 1013.2
20260831020303 89 160 0.0 3.0 0.00 0.00 0.00 42 1013.1
20260831015759 89 173 1.0 3.0 0.00 0.00 0.00 42 1013.2
20260831015257 90 172 0.0 2.0 0.00 0.00 0.00 41 1013.1
20260831014757 90 175 0.0 2.0 0.00 0.00 0.00 41 1013.0
20260831014257 90 174 0.0 2.0 0.00 0.00 0.00 41 1013.0
20260831013755 91 158 0.0 1.0 0.00 0.00 0.00 40 1012.9
20260831013254 91 158 0.0 2.0 0.00 0.00 0.00 40 1012.9
20260831012756 91 158 0.0 2.0 0.00 0.00 0.00 40 1012.9
20260831012257 92 158 0.0 2.0 0.00 0.00 0.00 39 1012.9
20260831011755 92 158 1.0 3.0 0.00 0.00 0.00 39 1012.8
20260831011255 92 155 0.0 3.0 0.00 0.00 0.00 38 1012.8
20260831010754 92 161 0.0 2.0 0.00 0.00 0.00 38 1012.7
20260831010253 93 164 0.0 2.0 0.00 0.00 0.00 38 1012.7
20260831005752 93 163 0.0 4.0 0.00 0.00 0.00 37 1012.6
20260831005254 94 167 0.0 4.0 0.00 0.00 0.00 37 1012.6
20260831005250 94 165 1.0 4.0 0.00 0.00 0.00 37 1012.6
20260831004249 94 169 1.0 4.0 0.00 0.00 0.00 36 1012.6
20260831003747 94 160 1.0 7.0 0.00 0.00 0.00 36 1012.5
20260831003247 95 188 1.0 7.0 0.00 0.00 0.00 36 1012.5
20260831002750 95 156 2.0 7.0 0.00 0.00 0.00 35 1012.6
20260831002746 95 146 2.0 7.0 0.00 0.00 0.00 35 1012.5
20260831001747 95 186 3.0 8.0 0.00 0.00 0.00 35 1012.5
20260831001251 95 173 3.0 8.0 0.00 0.00 0.00 35 1012.6
20260831001247 95 171 2.0 8.0 0.00 0.00 0.00 35 1012.5
20260831000251 96 213 3.0 8.0 0.00 0.00 0.00 34 1012.6
20260831000245 96 215 3.0 8.0 0.00 0.00 0.00 34 1012.6
20260830235249 96 182 2.0 7.0 0.00 0.00 0.00 35 1012.7
20260830235245 96 173 3.0 8.0 0.00 0.00 0.00 35 1012.6
20260830234244 96 144 2.0 6.0 0.00 0.00 0.00 35 1012.6
20260830233743 96 200 2.0 8.0 0.00 0.00 0.00 34 1012.6
20260830233242 96 157 2.0 9.0 0.00 0.00 0.00 34 1012.6
20260830232743 97 188 2.0 9.0 0.00 0.00 0.00 34 1012.7
20260830232247 98 116 2.0 7.0 0.00 0.00 0.00 34 1012.7
20260830232243 97 138 2.0 7.0 0.00 0.00 0.00 34 1012.7
20260830231245 98 159 3.0 12.0 0.00 0.00 0.00 33 1012.7
20260830231240 98 134 3.0 12.0 0.00 0.00 0.00 33 1012.7
20260830230239 98 138 3.0 13.0 0.00 0.00 0.00 33 1012.7
20260830225738 98 161 2.0 13.0 0.00 0.00 0.00 33 1012.7
20260830225239 98 200 1.0 8.0 0.00 0.00 0.00 33 1012.7
20260830224739 98 184 2.0 8.0 0.00 0.00 0.00 33 1012.7
20260830224238 98 119 2.0 8.0 0.00 0.00 0.00 32 1012.7
20260830223738 98 96 2.0 8.0 0.00 0.00 0.00 32 1012.8
20260830223236 98 161 2.0 8.0 0.00 0.00 0.00 32 1012.7
20260830222736 98 90 2.0 8.0 0.00 0.00 0.00 32 1012.7
20260830222237 98 108 2.0 10.0 0.00 0.00 0.00 32 1012.8
20260830221736 98 101 2.0 10.0 0.00 0.00 0.00 32 1012.7
20260830221235 98 175 2.0 8.0 0.00 0.00 0.00 32 1012.8
20260830220734 98 144 2.0 8.0 0.00 0.00 0.00 32 1012.9
20260830220234 99 172 3.0 12.0 0.00 0.00 0.00 32 1013.0
20260830215732 99 168 3.0 12.0 0.00 0.00 0.00 32 1012.9
20260830215232 99 143 3.0 10.0 0.00 0.00 0.00 31 1012.9
20260830214733 99 169 3.0 12.0 0.00 0.00 0.00 31 1012.9
20260830214233 99 190 3.0 12.0 0.00 0.00 0.00 30 1013.0
20260830213733 99 161 3.0 8.0 0.00 0.00 0.00 31 1012.9
20260830213235 99 112 4.0 11.0 0.00 0.00 0.00 31 1013.1
20260830212734 100 115 4.0 15.0 0.00 0.00 0.00 31 1013.1
20260830212232 100 222 4.0 15.0 0.00 0.00 0.00 30 1013.2
20260830211732 101 167 3.0 10.0 0.00 0.00 0.00 28 1013.2
20260830211232 100 216 3.0 11.0 0.00 0.00 0.00 30 1013.2
20260830210737 100 184 4.0 12.0 0.00 0.00 0.00 30 1013.4
20260830210733 100 27 4.0 11.0 0.00 0.00 0.00 30 1013.4
20260830205736 100 163 3.0 11.0 0.00 0.00 0.00 30 1013.6
20260830205732 99 186 4.0 12.0 0.00 0.00 0.00 29 1013.5
20260830204730 101 126 3.0 10.0 0.00 0.00 0.00 30 1013.7
20260830204230 100 148 3.0 10.0 0.00 0.00 0.00 31 1013.7
20260830203730 100 115 3.0 11.0 0.00 0.00 0.00 31 1014.0
20260830203231 100 255 3.0 11.0 0.00 0.00 0.00 30 1014.1
20260830202731 100 84 3.0 9.0 0.00 0.00 0.00 29 1014.1
20260830202231 100 134 4.0 12.0 0.00 0.00 0.00 29 1014.2
20260830201731 100 217 3.0 12.0 0.00 0.00 0.00 30 1014.2
20260830201234 100 192 4.0 17.0 0.00 0.00 0.00 31 1014.2
20260830201230 100 182 3.0 8.0 0.00 0.00 0.00 30 1014.2
20260830200229 99 157 4.0 17.0 0.00 0.00 0.00 30 1014.3
20260830195728 99 159 2.0 10.0 0.00 0.00 0.00 31 1014.4
20260830195231 99 196 3.0 11.0 0.00 0.00 0.00 31 1014.5
20260830194731 99 153 3.0 11.0 0.00 0.00 0.00 32 1014.5
20260830194228 100 166 3.0 11.0 0.00 0.00 0.00 32 1014.5
20260830193731 99 134 4.0 15.0 0.00 0.00 0.00 32 1014.7
20260830193727 99 272 4.0 11.0 0.00 0.00 0.00 33 1014.6
20260830192726 99 187 4.0 15.0 0.00 0.00 0.00 33 1014.8
20260830192226 98 200 3.0 11.0 0.00 0.00 0.00 33 1014.9
20260830191726 98 219 3.0 11.0 0.00 0.00 0.00 32 1015.0
20260830191227 98 178 3.0 12.0 0.00 0.00 0.00 33 1015.1
20260830190726 98 192 3.0 12.0 0.00 0.00 0.00 32 1015.2
20260830190229 98 156 4.0 11.0 0.00 0.00 0.00 33 1015.3
20260830190225 98 135 4.0 11.0 0.00 0.00 0.00 31 1015.4
20260830185224 98 193 4.0 10.0 0.00 0.00 0.00 30 1015.4
20260830184724 97 198 4.0 10.0 0.00 0.00 0.00 33 1015.4
20260830184222 97 165 5.0 14.0 0.00 0.00 0.00 34 1015.5
20260830183721 97 248 5.0 14.0 0.00 0.00 0.00 32 1015.5
20260830183224 97 217 4.0 14.0 0.00 0.00 0.00 32 1015.7
20260830183220 97 171 3.0 14.0 0.00 0.00 0.00 32 1015.6
20260830182220 96 155 4.0 14.0 0.00 0.00 0.00 33 1015.8
20260830181724 96 167 4.0 14.0 0.00 0.00 0.00 33 1016.0
20260830181720 96 130 3.0 14.0 0.00 0.00 0.00 33 1015.9
20260830180720 96 64 4.0 13.0 0.00 0.00 0.00 33 1016.0
20260830180220 96 175 3.0 13.0 0.00 0.00 0.00 34 1016.1
20260830175725 95 265 3.0 12.0 0.00 0.00 0.00 33 1016.4
20260830175720 95 177 3.0 12.0 0.00 0.00 0.00 33 1016.2
20260830174723 95 217 3.0 12.0 0.00 0.00 0.00 33 1016.4
20260830174719 95 90 3.0 11.0 0.00 0.00 0.00 32 1016.4
20260830173718 94 159 4.0 9.0 0.00 0.00 0.00 33 1016.6
20260830173218 94 132 4.0 9.0 0.00 0.00 0.00 32 1016.7
20260830172718 94 154 4.0 10.0 0.00 0.00 0.00 32 1016.8
20260830172218 93 171 4.0 10.0 0.00 0.00 0.00 32 1016.9
20260830171716 93 180 3.0 9.0 0.00 0.00 0.00 32 1016.8
20260830171220 92 244 3.0 10.0 0.00 0.00 0.00 31 1017.1
20260830171216 93 180 3.0 10.0 0.00 0.00 0.00 32 1017.0
20260830170825 92 146 4.0 15.0 0.00 0.00 0.00 31 1017.1
20260830170821 92 114 4.0 15.0 0.00 0.00 0.00 31 1017.1
20260830165216 92 164 4.0 11.0 0.00 0.00 0.00 31 1017.2
20260830164714 91 100 4.0 12.0 0.00 0.00 0.00 30 1017.2
20260830164214 91 165 4.0 12.0 0.00 0.00 0.00 29 1017.3
20260830163712 91 163 3.0 12.0 0.00 0.00 0.00 28 1017.4
20260830163214 91 211 3.0 7.0 0.00 0.00 0.00 27 1017.5
20260830162716 90 180 3.0 9.0 0.00 0.00 0.00 27 1017.4
20260830162712 91 206 3.0 7.0 0.00 0.00 0.00 27 1017.4
20260830161712 90 231 3.0 9.0 0.00 0.00 0.00 27 1017.5
20260830161213 90 159 5.0 11.0 0.00 0.00 0.00 26 1017.4
20260830160711 89 178 6.0 11.0 0.00 0.00 0.00 25 1017.6
20260830160212 89 156 4.0 11.0 0.00 0.00 0.00 24 1017.4
20260830155710 89 157 3.0 11.0 0.00 0.00 0.00 21 1017.4
20260830155210 89 138 3.0 9.0 0.00 0.00 0.00 19 1017.4
20260830154710 88 146 3.0 10.0 0.00 0.00 0.00 17 1017.3
20260830154210 88 242 3.0 10.0 0.00 0.00 0.00 15 1017.4
20260830153710 87 149 3.0 13.0 0.00 0.00 0.00 14 1017.4
20260830153211 87 161 3.0 13.0 0.00 0.00 0.00 12 1017.4
20260830152712 86 193 4.0 11.0 0.00 0.00 0.00 9 1017.4
20260830152707 87 178 3.0 9.0 0.00 0.00 0.00 10 1017.4
20260830151706 86 178 3.0 11.0 0.00 0.00 0.00 7 1017.4
20260830151206 85 168 2.0 7.0 0.00 0.00 0.00 2 1017.3
20260830150706 85 48 2.0 8.0 0.00 0.00 0.00 1 1017.3
20260830150206 85 331 2.0 9.0 0.00 0.00 0.00 1 1017.3
20260830145709 84 284 3.0 12.0 0.00 0.00 0.00 1 1017.3
20260830145706 84 192 2.0 9.0 0.00 0.00 0.00 1 1017.3
20260830144706 84 148 5.0 12.0 0.00 0.00 0.00 1 1017.3
20260830144205 83 223 4.0 9.0 0.00 0.00 0.00 1 1017.3
20260830143703 83 169 3.0 8.0 0.00 0.00 0.00 1 1017.3
20260830143207 82 154 4.0 9.0 0.00 0.00 0.00 1 1017.3
20260830143203 83 211 3.0 9.0 0.00 0.00 0.00 1 1017.3
20260830142204 82 139 3.0 9.0 0.00 0.00 0.00 1 1017.2
20260830141704 81 175 3.0 7.0 0.00 0.00 0.00 1 1017.2
20260830141204 81 163 3.0 8.0 0.00 0.00 0.00 1 1017.1
20260830140707 80 167 2.0 7.0 0.00 0.00 0.00 1 1017.0
20260830140703 80 175 3.0 8.0 0.00 0.00 0.00 1 1017.0
20260830135704 79 143 2.0 5.0 0.00 0.00 0.00 1 1017.0
20260830135208 78 167 3.0 7.0 0.00 0.00 0.00 1 1017.0
20260830135204 79 162 2.0 7.0 0.00 0.00 0.00 1 1017.1
20260830134203 78 134 2.0 6.0 0.00 0.00 0.00 1 1016.9
20260830133703 77 130 2.0 6.0 0.00 0.00 0.00 1 1016.9
20260830133308 76 153 2.0 7.0 0.00 0.00 0.00 1 1016.7
20260830133203 77 176 2.0 6.0 0.00 0.00 0.00 1 1016.8
20260830132707 77 186 2.0 6.0 0.00 0.00 0.00 1 1016.8
20260830132703 76 163 3.0 7.0 0.00 0.00 0.00 1 1016.8
20260830131203 76 145 2.0 6.0 0.00 0.00 0.00 1 1016.7
20260830130702 76 182 2.0 6.0 0.00 0.00 0.00 1 1016.7
20260830130311 75 172 2.0 5.0 0.00 0.00 0.00 1 1016.6
20260830130206 75 194 2.0 6.0 0.00 0.00 0.00 1 1016.6
20260830130202 75 192 2.0 6.0 0.00 0.00 0.00 1 1016.6
20260830124704 75 174 2.0 5.0 0.00 0.00 0.00 1 1016.6
20260830124700 75 185 1.0 3.0 0.00 0.00 0.00 1 1016.5
20260830123659 75 165 2.0 4.0 0.00 0.00 0.00 1 1016.4
20260830123200 75 190 2.0 4.0 0.00 0.00 0.00 1 1016.4
20260830122656 75 148 2.0 5.0 0.00 0.00 0.00 1 1016.3
20260830122155 75 164 2.0 5.0 0.00 0.00 0.00 1 1016.3
20260830121653 76 138 2.0 4.0 0.00 0.00 0.00 1 1016.2
20260830121153 76 198 2.0 4.0 0.00 0.00 0.00 1 1016.1
20260830120656 76 191 2.0 4.0 0.00 0.00 0.00 1 1016.0
20260830120652 76 168 2.0 4.0 0.00 0.00 0.00 1 1016.1
20260830115649 76 186 2.0 5.0 0.00 0.00 0.00 1 1016.0
20260830115148 76 175 2.0 6.0 0.00 0.00 0.00 1 1015.9
20260830114647 76 217 2.0 6.0 0.00 0.00 0.00 1 1015.8
20260830114147 76 171 2.0 6.0 0.00 0.00 0.00 1 1015.7
20260830113647 76 184 2.0 6.0 0.00 0.00 0.00 1 1015.6
20260830113147 76 177 2.0 5.0 0.00 0.00 0.00 1 1015.7
20260830112648 77 155 3.0 6.0 0.00 0.00 0.00 1 1015.6
20260830112148 77 168 3.0 6.0 0.00 0.00 0.00 1 1015.5
20260830111645 77 238 3.0 6.0 0.00 0.00 0.00 1 1015.5
20260830111145 77 190 3.0 6.0 0.00 0.00 0.00 1 1015.6
20260830110645 77 185 2.0 5.0 0.00 0.00 0.00 1 1015.5
20260830110147 77 200 2.0 4.0 0.00 0.00 0.00 1 1015.5
20260830110143 77 167 2.0 4.0 0.00 0.00 0.00 1 1015.5
20260830105143 77 190 2.0 5.0 0.00 0.00 0.00 1 1015.5
20260830104644 77 210 3.0 6.0 0.00 0.00 0.00 1 1015.5
20260830104143 78 193 2.0 6.0 0.00 0.00 0.00 1 1015.4
20260830103643 78 219 2.0 5.0 0.00 0.00 0.00 1 1015.4
20260830103141 78 160 2.0 5.0 0.00 0.00 0.00 1 1015.4
20260830102641 78 157 2.0 6.0 0.00 0.00 0.00 1 1015.3
20260830102141 79 180 2.0 6.0 0.00 0.00 0.00 1 1015.4
20260830101642 79 205 2.0 5.0 0.00 0.00 0.00 1 1015.4
20260830101141 79 198 2.0 5.0 0.00 0.00 0.00 1 1015.3
20260830100641 79 125 2.0 5.0 0.00 0.00 0.00 1 1015.3
20260830100141 79 143 1.0 5.0 0.00 0.00 0.00 1 1015.3
20260830095641 79 211 1.0 5.0 0.00 0.00 0.00 1 1015.3